Lawton, OK

2:42 AM CDT on October 19, 2017 (GMT -0500)
Lawton-Fort Sill Regional

Weather History for KLAW - September, 2014

Change the Weather History Date:

Sunday, September 7, 2014

  Actual Average Record
Temperature  
Mean Temperature 73 °F 78 °F  
Max Temperature 84 °F 91 °F 107 °F (2012)
Min Temperature 64 °F 66 °F 49 °F (1943)
Degree Days  
Heating Degree Days 0 0  
Month to date heating degree days 0  
Since 1 July heating degree days 0  
Cooling Degree Days 8 13  
Month to date cooling degree days 100  
Year to date cooling degree days 2016  
Growing Degree Days 23 (Base 50)    
Moisture  
Dew Point 61 °F    
Average Humidity 69    
Maximum Humidity 90    
Minimum Humidity 49    
Precipitation  
Precipitation 0.00 in 0.12 in 2.50 in (1970)
Month to date precipitation 0.98  
Year to date precipitation 21.66  
Sea Level Pressure  
Sea Level Pressure 30.10 in    
Wind  
Wind Speed 5 mph (NE)    
Max Wind Speed 10 mph    
Max Gust Speed -    
Visibility 10 miles    
Events      
T = Trace of Precipitation, MM = Missing Value Source: NWS Daily Summary

Daily Weather History Graph

Daily Weather History Graph

Search for Another Location

Airport or City:

Trip Planner

Search our weather history database for the weather conditions in past years. The results will help you decide how hot, cold, wet, or windy it might be!

Date:

Astronomy

Sep. 07, 2014 Rise Set
Actual Time 7:11 AM CDT 7:51 PM CDT
Civil Twilight 6:45 AM CDT 8:17 PM CDT
Nautical Twilight 6:15 AM CDT 8:47 PM CDT
Astronomical Twilight 5:44 AM CDT 9:17 PM CDT
Moon 6:51 PM CDT (9/7) 5:28 AM CDT (9/7)
Length of Visible Light 13h 31m
Length of Day
12h 40m
Waxing Gibbous, 97% of the Moon is Illuminated
Sep 7
Waxing Gibbous
Sep 8
Full
Sep 15
Last Quarter
Sep 24
New
Oct 1
First Quarter

Hourly Weather History & Observations

Time (CDT) Temp. Heat Index Dew Point Humidity Pressure Visibility Wind Dir Wind Speed Gust Speed Precip Events Conditions
12:53 AM 64.9 °F - 62.1 °F 90% 30.17 in 9.0 mi Calm Calm - N/A   Clear
1:53 AM 64.9 °F - 62.1 °F 90% 30.16 in 10.0 mi North 4.6 mph - N/A   Scattered Clouds
2:53 AM 66.0 °F - 62.1 °F 87% 30.14 in 10.0 mi North 5.8 mph - N/A   Overcast
3:53 AM 66.0 °F - 62.1 °F 87% 30.14 in 10.0 mi North 6.9 mph - N/A   Overcast
4:53 AM 66.0 °F - 61.0 °F 84% 30.14 in 10.0 mi North 8.1 mph - N/A   Overcast
5:53 AM 64.9 °F - 60.1 °F 84% 30.13 in 10.0 mi North 10.4 mph - N/A   Overcast
6:53 AM 64.9 °F - 60.1 °F 84% 30.13 in 10.0 mi NNE 8.1 mph - N/A   Overcast
7:53 AM 64.9 °F - 60.1 °F 84% 30.14 in 10.0 mi NNE 9.2 mph - N/A   Overcast
8:53 AM 68.0 °F - 59.0 °F 73% 30.14 in 10.0 mi NNE 8.1 mph - N/A   Overcast
9:53 AM 71.1 °F - 60.1 °F 68% 30.14 in 10.0 mi NNE 8.1 mph - N/A   Mostly Cloudy
10:53 AM 72.0 °F - 57.9 °F 61% 30.16 in 10.0 mi ENE 9.2 mph - N/A   Overcast
11:53 AM 73.9 °F - 59.0 °F 59% 30.14 in 10.0 mi Variable 5.8 mph - N/A   Overcast
12:53 PM 78.1 °F - 59.0 °F 52% 30.12 in 10.0 mi ENE 5.8 mph - N/A   Clear
1:53 PM 80.1 °F 80.9 °F 60.1 °F 50% 30.09 in 10.0 mi ENE 6.9 mph - N/A   Clear
2:53 PM 82.0 °F 83.0 °F 62.1 °F 51% 30.07 in 10.0 mi ENE 4.6 mph - N/A   Partly Cloudy
4:53 PM 82.9 °F 83.7 °F 62.1 °F 49% 30.01 in 10.0 mi SE 4.6 mph - N/A   Overcast
5:53 PM 82.0 °F 83.0 °F 62.1 °F 51% 30.01 in 10.0 mi Calm Calm - N/A   Overcast
6:53 PM 82.0 °F 83.0 °F 62.1 °F 51% 29.99 in 10.0 mi Calm Calm - N/A   Overcast
7:53 PM 80.1 °F 81.5 °F 63.0 °F 56% 29.99 in 10.0 mi NNE 3.5 mph - N/A   Overcast
8:53 PM 78.1 °F - 66.9 °F 68% 30.00 in 10.0 mi Calm Calm - N/A   Overcast
11:53 PM 75.0 °F - 66.9 °F 76% 30.03 in 10.0 mi SE 4.6 mph - N/A   Overcast